This is the latest recevied weather packets stored in our database for station/object K0APR. If no packets are shown the sender has not sent any weather packets the latest 10 day(s).
| Time | Temp. | Humidity | Pressure | Rain* | Wind** | Luminosity | Snow |
|---|---|---|---|---|---|---|---|
| 1777911754 | 14.44° C | 48% | 1002.4 hPa | 0 mm | - | 660 W/m² | - |
| 1777911451 | 14.44° C | 52% | 1002.4 hPa | 0 mm | - | 709 W/m² | - |
| 1777911148 | 14.44° C | 48% | 1002.4 hPa | 0 mm | - | 590 W/m² | - |
| 1777910846 | 14.44° C | 48% | 1002.1 hPa | 0 mm | - | 611 W/m² | - |
| 1777910542 | 14.44° C | 44% | 1002.1 hPa | 0 mm | - | 580 W/m² | - |
| 1777910239 | 14.44° C | 45% | 1002.1 hPa | 0 mm | - | 363 W/m² | - |
| 1777909936 | 14.44° C | 45% | 1002.1 hPa | 0 mm | - | 390 W/m² | - |
| 1777909633 | 14.44° C | 47% | 1001.8 hPa | 0 mm | - | 419 W/m² | - |
| 1777909330 | 14.44° C | 45% | 1001.8 hPa | 0 mm | - | 383 W/m² | - |
| 1777909028 | 15° C | 48% | 1001.8 hPa | 0 mm | - | 559 W/m² | - |
| 1777908725 | 14.44° C | 47% | 1001.8 hPa | 0 mm | - | 536 W/m² | - |
| 1777908422 | 14.44° C | 48% | 1001.8 hPa | 0 mm | - | 524 W/m² | - |
| 1777908119 | 14.44° C | 48% | 1001.8 hPa | 0 mm | - | 470 W/m² | - |
| 1777907815 | 14.44° C | 49% | 1001.8 hPa | 0 mm | - | 315 W/m² | - |
| 1777907516 | 14.44° C | 47% | 1001.8 hPa | 0 mm | - | 326 W/m² | - |
| 1777907213 | 14.44° C | 50% | 1001.8 hPa | 0 mm | - | 396 W/m² | - |
| 1777906910 | 13.89° C | 51% | 1001.8 hPa | 0 mm | - | 481 W/m² | - |
| 1777906607 | 13.89° C | 50% | 1001.4 hPa | 0 mm | - | 458 W/m² | - |
| 1777906302 | 13.89° C | 50% | 1001.8 hPa | 0 mm | - | 427 W/m² | - |
| 1777906000 | 13.89° C | 51% | 1001.4 hPa | 0 mm | - | 399 W/m² | - |
| 1777905696 | 13.89° C | 51% | 1001.8 hPa | 0 mm | - | 311 W/m² | - |
| 1777905393 | 13.89° C | 51% | 1001.8 hPa | 0 mm | - | 417 W/m² | - |
| 1777905091 | 13.89° C | 51% | 1001.8 hPa | 0 mm | - | 352 W/m² | - |
| 1777904788 | 13.89° C | 52% | 1001.8 hPa | 0 mm | - | 317 W/m² | - |
| 1777904485 | 13.89° C | 51% | 1001.8 hPa | 0 mm | - | 318 W/m² | - |
* Rain latest hour (hover to see other rain measurements)
** Current wind speed in m/s (hover to see current wind gust speed)